#timestamp,LO_Frequency,Hit,Temp,Hum 
1478412015.9,286047014.9,N,0.0,0.0
1478412035.7,286047014.1,N,0.0,0.0
1478412055.5,286047017.1,N,0.0,0.0
1478412075.3,286047016.7,N,0.0,0.0
1478412095.2,286047015.9,N,0.0,0.0
1478412115.0,286047014.1,N,0.0,0.0
1478412115.9,286047014.1,N,0.0,0.0
1478412135.7,286047014.3,N,0.0,0.0
1478412155.6,286047012.6,N,0.0,0.0
1478412175.4,286047014.2,N,0.0,0.0
1478412195.2,286047012.8,N,0.0,0.0
1478412215.1,286047013.3,N,0.0,0.0
1478412216.0,286047013.3,N,0.0,0.0
1478412235.8,286047012.7,N,0.0,0.0
1478412255.6,286047018.0,N,0.0,0.0
1478412275.5,286047012.5,N,0.0,0.0
1478412295.3,286047014.8,N,0.0,0.0
1478412315.1,286047010.9,N,0.0,0.0
1478412335.9,286047013.6,N,0.0,0.0
1478412355.7,286047011.1,N,0.0,0.0
1478412375.5,286047029.5,N,0.0,0.0
1478412395.4,286047022.1,N,0.0,0.0
1478412415.2,286047006.9,N,0.0,0.0
1478412435.0,286047008.6,N,0.0,0.0
1478412435.9,286047008.6,N,0.0,0.0
1478412455.8,286047008.9,N,0.0,0.0
1478412475.6,286047006.1,N,0.0,0.0
1478412495.4,286047007.1,N,0.0,0.0
1478412515.3,286047000.5,N,0.0,0.0
1478412535.1,286046998.9,N,0.0,0.0
1478412536.0,286046998.9,N,0.0,0.0
1478412555.8,286047002.1,N,0.0,0.0
1478412575.7,286046999.9,N,0.0,0.0
1478412595.5,286046997.4,N,0.0,0.0
1478412615.3,286046998.6,N,0.0,0.0
1478412635.1,286046992.5,N,0.0,0.0
1478412655.9,286046993.2,N,0.0,0.0
1478412675.7,286047001.1,N,0.0,0.0
1478412695.5,286046988.2,N,0.0,0.0
1478412715.4,286046989.4,N,0.0,0.0
1478412735.2,286046980.9,N,0.0,0.0
1478412755.0,286046988.8,N,0.0,0.0
1478412755.9,286046988.8,N,0.0,0.0
1478412775.8,286046991.5,N,0.0,0.0
1478412795.6,286046987.8,N,0.0,0.0
1478412815.4,286046992.2,N,0.0,0.0
1478412835.3,286046990.9,N,0.0,0.0
1478412855.1,286046992.4,N,0.0,0.0
1478412856.0,286046992.4,N,0.0,0.0
1478412875.8,286046996.7,N,0.0,0.0
1478412895.7,286047002.5,N,0.0,0.0
1478412915.5,286047003.0,N,0.0,0.0
1478412935.3,286047007.4,N,0.0,0.0
1478412955.2,286047008.2,N,0.0,0.0
1478412975.9,286047001.6,N,0.0,0.0
1478412995.7,286047000.1,N,0.0,0.0
1478413015.6,286046998.1,N,0.0,0.0
1478413035.4,286046996.8,N,0.0,0.0
1478413055.2,286046992.5,N,0.0,0.0
1478413075.0,286046987.8,N,0.0,0.0
1478413076.0,286046987.8,N,0.0,0.0
1478413095.8,286046991.9,N,0.0,0.0
1478413115.6,286046996.7,N,0.0,0.0
1478413135.4,286046999.0,N,0.0,0.0
1478413155.3,286046999.6,N,0.0,0.0
1478413175.1,286046996.6,N,0.0,0.0
1478413195.8,286047001.1,N,0.0,0.0
1478413215.7,286046999.0,N,0.0,0.0
1478413235.5,286047001.0,N,0.0,0.0
1478413255.3,286047000.2,N,0.0,0.0
1478413275.2,286047002.1,N,0.0,0.0
1478413295.9,286047004.1,N,0.0,0.0
1478413315.7,286047005.0,N,0.0,0.0
1478413335.6,286047009.0,N,0.0,0.0
1478413355.4,286047003.1,N,0.0,0.0
1478413375.2,286047009.2,N,0.0,0.0
1478413395.1,286047007.2,N,0.0,0.0
1478413396.0,286047007.2,N,0.0,0.0
1478413415.8,286047007.0,N,0.0,0.0
1478413435.6,286047006.4,N,0.0,0.0
1478413455.5,286047019.8,N,0.0,0.0
1478413475.3,286047015.3,N,0.0,0.0
1478413495.1,286047009.8,N,0.0,0.0
1478413515.8,286047012.2,N,0.0,0.0
1478413535.7,286047010.0,N,0.0,0.0
1478413555.5,286047010.0,N,0.0,0.0
1478413575.3,286047012.4,N,0.0,0.0
1478413595.2,286047009.6,N,0.0,0.0
1478413615.0,286047008.7,N,0.0,0.0
1478413615.9,286047008.7,N,0.0,0.0
1478413635.7,286047010.0,N,0.0,0.0
1478413655.6,286047006.7,N,0.0,0.0
1478413675.4,286047009.3,N,0.0,0.0
1478413695.2,286047011.8,N,0.0,0.0
1478413715.1,286047011.8,N,0.0,0.0
1478413716.0,286047011.8,N,0.0,0.0
1478413735.8,286047012.2,N,0.0,0.0
1478413755.6,286047009.3,N,0.0,0.0
1478413775.5,286047011.7,N,0.0,0.0
1478413795.3,286047012.3,N,0.0,0.0
1478413815.1,286047012.2,N,0.0,0.0
1478413835.9,286047011.2,N,0.0,0.0
1478413855.7,286047012.0,N,0.0,0.0
1478413875.5,286047009.4,N,0.0,0.0
1478413895.4,286047008.1,N,0.0,0.0
1478413915.2,286047009.5,N,0.0,0.0
1478413935.0,286047008.9,N,0.0,0.0
1478413935.9,286047008.9,N,0.0,0.0
1478413955.8,286047010.2,N,0.0,0.0
1478413975.6,286047009.9,N,0.0,0.0
1478413995.4,286047012.4,N,0.0,0.0
1478414015.2,286047010.2,N,0.0,0.0
1478414035.1,286047009.8,N,0.0,0.0
1478414036.0,286047009.8,N,0.0,0.0
1478414055.8,286047010.5,N,0.0,0.0
1478414075.6,286047011.8,N,0.0,0.0
1478414095.5,286047011.7,N,0.0,0.0
1478414115.3,286047010.8,N,0.0,0.0
1478414135.1,286047008.1,N,0.0,0.0
1478414155.9,286047011.6,N,0.0,0.0
1478414175.7,286047008.3,N,0.0,0.0
1478414195.5,286047010.5,N,0.0,0.0
1478414215.4,286047010.5,N,0.0,0.0
1478414235.2,286047012.3,N,0.0,0.0
1478414255.0,286047010.0,N,0.0,0.0
1478414255.9,286047010.0,N,0.0,0.0
1478414275.8,286047012.3,N,0.0,0.0
1478414295.6,286047010.5,N,0.0,0.0
1478414315.4,286047008.5,N,0.0,0.0
1478414335.3,286047010.6,N,0.0,0.0
1478414355.1,286047011.2,N,0.0,0.0
1478414356.0,286047011.2,N,0.0,0.0
1478414375.8,286047011.6,N,0.0,0.0
1478414395.7,286047010.1,N,0.0,0.0
1478414415.5,286047012.0,N,0.0,0.0
1478414435.3,286047012.1,N,0.0,0.0
1478414455.1,286047011.1,N,0.0,0.0
1478414475.9,286047009.3,N,0.0,0.0
1478414495.7,286047009.1,N,0.0,0.0
1478414515.5,286047013.2,N,0.0,0.0
1478414535.4,286047007.8,N,0.0,0.0
1478414555.2,286047008.7,N,0.0,0.0
1478414575.0,286047005.5,N,0.0,0.0
1478414575.9,286047005.5,N,0.0,0.0
1478414595.8,286047009.6,N,0.0,0.0
1478414615.6,286047005.0,N,0.0,0.0
1478414635.4,286047004.7,N,0.0,0.0
1478414655.3,286047003.0,N,0.0,0.0
1478414675.1,286047005.5,N,0.0,0.0
1478414695.8,286047004.5,N,0.0,0.0
1478414715.7,286047009.0,N,0.0,0.0
1478414735.5,286047004.3,N,0.0,0.0
1478414755.3,286047007.0,N,0.0,0.0
1478414775.2,286047004.2,N,0.0,0.0
1478414795.9,286047006.1,N,0.0,0.0
1478414815.7,286047005.4,N,0.0,0.0
1478414835.6,286047002.7,N,0.0,0.0
1478414855.4,286047003.2,N,0.0,0.0
1478414875.2,286047001.1,N,0.0,0.0
1478414895.0,286047004.2,N,0.0,0.0
1478414895.9,286047004.2,N,0.0,0.0
1478414915.8,286047002.9,N,0.0,0.0
1478414935.6,286047005.5,N,0.0,0.0
1478414955.4,286047007.1,N,0.0,0.0
1478414975.3,286047004.0,N,0.0,0.0
1478414995.1,286047005.6,N,0.0,0.0
1478415015.8,286047001.5,N,0.0,0.0
1478415035.7,286047000.3,N,0.0,0.0
1478415055.5,286047002.3,N,0.0,0.0
1478415075.3,286046998.6,N,0.0,0.0
1478415095.2,286046997.9,N,0.0,0.0
1478415115.9,286046993.7,N,0.0,0.0
1478415135.7,286046990.1,N,0.0,0.0
1478415155.6,286046988.6,N,0.0,0.0
1478415175.4,286046990.0,N,0.0,0.0
1478415195.2,286046987.2,N,0.0,0.0
1478415215.1,286046987.0,N,0.0,0.0
1478415216.0,286046987.0,N,0.0,0.0
1478415235.8,286046988.3,N,0.0,0.0
1478415255.6,286046987.4,N,0.0,0.0
1478415275.5,286046990.9,N,0.0,0.0
1478415295.3,286046988.9,N,0.0,0.0
1478415315.1,286046990.1,N,0.0,0.0
1478415335.8,286046991.9,N,0.0,0.0
1478415355.7,286046994.4,N,0.0,0.0
1478415375.5,286046991.8,N,0.0,0.0
1478415395.3,286046992.2,N,0.0,0.0
1478415415.2,286046994.5,N,0.0,0.0
1478415435.9,286046991.8,N,0.0,0.0
1478415455.7,286046993.5,N,0.0,0.0
1478415475.6,286046996.0,N,0.0,0.0
1478415495.4,286046994.1,N,0.0,0.0
1478415515.2,286046993.5,N,0.0,0.0
1478415535.1,286046999.6,N,0.0,0.0
1478415536.0,286046999.6,N,0.0,0.0
1478415555.8,286046995.7,N,0.0,0.0
1478415575.6,286046999.1,N,0.0,0.0
1478415595.5,286046997.3,N,0.0,0.0
